[TLELIST] Archives

 

[TLELIST] Current TLEs

July 1st 2023 PDT

HST 1 20580U 90037B 23180.12857819 .00003160 00000-0 16234-3 0 9998 2 20580 28.4679 188.5430 0002753 145.1078 260.1817 15.13365683623530 ISS (ZARYA) 1 25544U 98067A 23182.38029799 .00013134 00000-0 23288-3 0 9991 2 25544 51.6419 258.1690 0004718 91.8206 2.1878 15.50581804403993 CXO 1 25867U 99040B 23181.18125698 .00000509 00000-0 00000+0 0 9998 2 25867 37.5067 195.1310 9050627 263.8076 0.2681 0.37816111 24381 ...Continue Reading

[TLELIST] Current TLEs

June 30th 2023 PDT

HST 1 20580U 90037B 23180.12857819 .00003160 00000-0 16234-3 0 9998 2 20580 28.4679 188.5430 0002753 145.1078 260.1817 15.13365683623530 ISS (ZARYA) 1 25544U 98067A 23180.77861337 .00013967 00000-0 24752-3 0 9995 2 25544 51.6422 266.1105 0004651 89.4369 58.0332 15.50537939403744 CXO 1 25867U 99040B 23181.18125698 .00000509 00000-0 00000+0 0 9998 2 25867 37.5067 195.1310 9050627 263.8076 0.2681 0.37816111 24381 ...Continue Reading

[TLELIST] Current TLEs

June 29th 2023 PDT

HST 1 20580U 90037B 23180.12857819 .00003160 00000-0 16234-3 0 9998 2 20580 28.4679 188.5430 0002753 145.1078 260.1817 15.13365683623530 ISS (ZARYA) 1 25544U 98067A 23180.38078696 .00014782 00000-0 26155-3 0 9995 2 25544 51.6415 268.0822 0004621 88.6940 356.6804 15.50528727403685 CXO 1 25867U 99040B 23181.18125698 .00000509 00000-0 00000+0 0 9998 2 25867 37.5067 195.1310 9050627 263.8076 0.2681 0.37816111 24381 ...Continue Reading

[TLELIST] Current TLEs

June 29th 2023 PDT

HST 1 20580U 90037B 23180.12857819 .00003160 00000-0 16234-3 0 9998 2 20580 28.4679 188.5430 0002753 145.1078 260.1817 15.13365683623530 ISS (ZARYA) 1 25544U 98067A 23180.38078696 .00014782 00000-0 26155-3 0 9995 2 25544 51.6415 268.0822 0004621 88.6940 356.6804 15.50528727403685 CXO 1 25867U 99040B 23181.18125698 .00000509 00000-0 00000+0 0 9998 2 25867 37.5067 195.1310 9050627 263.8076 0.2681 0.37816111 24381 ...Continue Reading

[TLELIST] Current TLEs

June 28th 2023 PDT

HST 1 20580U 90037B 23178.76532794 .00003498 00000-0 18083-3 0 9995 2 20580 28.4681 197.6158 0002788 131.0973 32.2917 15.13358135623338 ISS (ZARYA) 1 25544U 98067A 23179.41644675 .00015574 00000-0 27538-3 0 9999 2 25544 51.6418 272.8650 0004748 86.3285 12.6836 15.50499586403535 CXO 1 25867U 99040B 23181.18125698 .00000509 00000-0 00000+0 0 9998 2 25867 37.5067 195.1310 9050627 263.8076 0.2681 0.37816111 24381 ...Continue Reading

[TLELIST] Current TLEs

June 28th 2023 PDT

HST 1 20580U 90037B 23178.76532794 .00003498 00000-0 18083-3 0 9995 2 20580 28.4681 197.6158 0002788 131.0973 32.2917 15.13358135623338 ISS (ZARYA) 1 25544U 98067A 23179.41644675 .00015574 00000-0 27538-3 0 9999 2 25544 51.6418 272.8650 0004748 86.3285 12.6836 15.50499586403535 CXO 1 25867U 99040B 23181.18125698 .00000509 00000-0 00000+0 0 9998 2 25867 37.5067 195.1310 9050627 263.8076 0.2681 0.37816111 24381 ...Continue Reading

[TLELIST] Current TLEs

June 27th 2023 PDT

HST 1 20580U 90037B 23177.51038351 .00003598 00000-0 18638-3 0 9994 2 20580 28.4682 205.9674 0002840 118.5741 34.1836 15.13349519623143 ISS (ZARYA) 1 25544U 98067A 23178.38136013 .00017303 00000-0 30536-3 0 9990 2 25544 51.6414 277.9979 0004855 81.7764 355.8342 15.50468726403379 CXO 1 25867U 99040B 23178.53640053 .00000514 00000-0 00000+0 0 9996 2 25867 37.5241 195.4204 9053247 263.5780 0.1219 0.37818418 24377 ...Continue Reading

[TLELIST] Current TLEs

June 27th 2023 PDT

HST 1 20580U 90037B 23177.51038351 .00003598 00000-0 18638-3 0 9994 2 20580 28.4682 205.9674 0002840 118.5741 34.1836 15.13349519623143 ISS (ZARYA) 1 25544U 98067A 23178.38136013 .00017303 00000-0 30536-3 0 9990 2 25544 51.6414 277.9979 0004855 81.7764 355.8342 15.50468726403379 CXO 1 25867U 99040B 23178.53640053 .00000514 00000-0 00000+0 0 9996 2 25867 37.5241 195.4204 9053247 263.5780 0.1219 0.37818418 24377 ...Continue Reading

[TLELIST] Current TLEs

June 26th 2023 PDT

HST 1 20580U 90037B 23176.17087084 .00004366 00000-0 22838-3 0 9993 2 20580 28.4681 214.8814 0002871 105.6844 294.8370 15.13341294622938 ISS (ZARYA) 1 25544U 98067A 23177.34793696 .00022675 00000-0 39784-3 0 9993 2 25544 51.6416 283.1215 0004542 82.0278 343.6046 15.50439564403217 CXO 1 25867U 99040B 23178.53640053 .00000514 00000-0 00000+0 0 9996 2 25867 37.5241 195.4204 9053247 263.5780 0.1219 0.37818418 24377 ...Continue Reading

[TLELIST] Current TLEs

June 26th 2023 PDT

HST 1 20580U 90037B 23176.17087084 .00004366 00000-0 22838-3 0 9993 2 20580 28.4681 214.8814 0002871 105.6844 294.8370 15.13341294622938 ISS (ZARYA) 1 25544U 98067A 23177.34793696 .00022675 00000-0 39784-3 0 9993 2 25544 51.6416 283.1215 0004542 82.0278 343.6046 15.50439564403217 CXO 1 25867U 99040B 23178.53640053 .00000514 00000-0 00000+0 0 9996 2 25867 37.5241 195.4204 9053247 263.5780 0.1219 0.37818418 24377 ...Continue Reading
  • This mailing list is a public mailing list - anyone may join or leave, at any time.
  • This mailing list is announce-only.

International Space Station (ISS) / Hubble Space Telescope (HST) / Chandra X-Ray Observatory Orbital Data via EMAIL

Privacy Policy:

Private list